| time (UTC) | temp F | wind direction | speed MPH | gust MPH | rain 1hr in | rain 24hr in | rain mn in | humidity % | barometer mb |
| 20260901170504 | 89 | 130 | 9.0 | 0.0 | 0.00 | 0.00 | 0.00 | 48 | 1013.0 |
| 20260901170005 | 89 | 126 | 13.0 | 0.0 | 0.00 | 0.00 | 0.00 | 45 | 1013.0 |
| 20260901165505 | 89 | 164 | 4.0 | 0.0 | 0.00 | 0.00 | 0.00 | 49 | 1013.3 |
| 20260901165212 | 89 | 114 | 0.0 | 0.0 | 0.00 | 0.00 | 0.00 | 50 | 1013.3 |
| 20260901164505 | 89 | 86 | 18.0 | 0.0 | 0.00 | 0.00 | 0.00 | 49 | 1013.3 |
| 20260901164005 | 88 | 175 | 9.0 | 0.0 | 0.00 | 0.00 | 0.00 | 54 | 1013.3 |
| 20260901163713 | 88 | 164 | 9.0 | 0.0 | 0.00 | 0.00 | 0.00 | 52 | 1013.3 |
| 20260901163005 | 89 | 52 | 13.0 | 0.0 | 0.00 | 0.00 | 0.00 | 53 | 1013.3 |
| 20260901162504 | 87 | 96 | 0.0 | 0.0 | 0.00 | 0.00 | 0.00 | 55 | 1013.0 |
| 20260901162212 | 87 | 104 | 13.0 | 0.0 | 0.00 | 0.00 | 0.00 | 54 | 1013.3 |
| 20260901161505 | 87 | 174 | 4.0 | 0.0 | 0.00 | 0.00 | 0.00 | 55 | 1013.3 |
| 20260901161005 | 86 | 154 | 9.0 | 0.0 | 0.00 | 0.00 | 0.00 | 57 | 1013.3 |
| 20260901160505 | 86 | 33 | 9.0 | 0.0 | 0.00 | 0.00 | 0.00 | 58 | 1013.3 |
| 20260901160004 | 86 | 95 | 4.0 | 0.0 | 0.00 | 0.00 | 0.00 | 59 | 1013.3 |
| 20260901155713 | 86 | 163 | 9.0 | 0.0 | 0.00 | 0.00 | 0.00 | 59 | 1013.3 |
| 20260901155005 | 86 | 146 | 13.0 | 0.0 | 0.00 | 0.00 | 0.00 | 60 | 1013.3 |
| 20260901154505 | 85 | 175 | 27.0 | 0.0 | 0.00 | 0.00 | 0.00 | 60 | 1013.3 |
| 20260901154005 | 85 | 163 | 13.0 | 0.0 | 0.00 | 0.00 | 0.00 | 61 | 1013.3 |
| 20260901153712 | 85 | 165 | 23.0 | 0.0 | 0.00 | 0.00 | 0.00 | 61 | 1013.3 |
| 20260901153005 | 84 | 58 | 4.0 | 0.0 | 0.00 | 0.00 | 0.00 | 64 | 1013.3 |
| 20260901152504 | 85 | 178 | 13.0 | 0.0 | 0.00 | 0.00 | 0.00 | 62 | 1013.3 |
| 20260901152005 | 84 | 73 | 9.0 | 0.0 | 0.00 | 0.00 | 0.00 | 62 | 1013.0 |
| 20260901151505 | 84 | 30 | 13.0 | 0.0 | 0.00 | 0.00 | 0.00 | 63 | 1013.3 |
| 20260901151005 | 84 | 73 | 13.0 | 0.0 | 0.00 | 0.00 | 0.00 | 64 | 1013.3 |
| 20260901150505 | 83 | 76 | 13.0 | 0.0 | 0.00 | 0.00 | 0.00 | 66 | 1013.3 |
| 20260901150211 | 83 | 126 | 13.0 | 0.0 | 0.00 | 0.00 | 0.00 | 68 | 1013.3 |
| 20260901145505 | 83 | 97 | 9.0 | 0.0 | 0.00 | 0.00 | 0.00 | 70 | 1013.3 |
| 20260901145005 | 83 | 175 | 9.0 | 0.0 | 0.00 | 0.00 | 0.00 | 69 | 1013.3 |
| 20260901144505 | 82 | 151 | 9.0 | 0.0 | 0.00 | 0.00 | 0.00 | 70 | 1013.3 |
| 20260901144005 | 82 | 100 | 4.0 | 0.0 | 0.00 | 0.00 | 0.00 | 72 | 1013.3 |
| 20260901143505 | 82 | 97 | 9.0 | 0.0 | 0.00 | 0.00 | 0.00 | 73 | 1013.3 |
| 20260901143005 | 82 | 133 | 9.0 | 0.0 | 0.00 | 0.00 | 0.00 | 73 | 1013.3 |
| 20260901142505 | 81 | 164 | 4.0 | 0.0 | 0.00 | 0.00 | 0.00 | 75 | 1013.3 |
| 20260901142004 | 81 | 176 | 9.0 | 0.0 | 0.00 | 0.00 | 0.00 | 74 | 1013.3 |
| 20260901141505 | 81 | 151 | 13.0 | 0.0 | 0.00 | 0.00 | 0.00 | 76 | 1013.3 |
| 20260901141005 | 81 | 109 | 9.0 | 0.0 | 0.00 | 0.00 | 0.00 | 76 | 1013.0 |
| 20260901140505 | 80 | 143 | 9.0 | 0.0 | 0.00 | 0.00 | 0.00 | 77 | 1013.3 |
| 20260901140213 | 80 | 81 | 4.0 | 0.0 | 0.00 | 0.00 | 0.00 | 77 | 1013.0 |
| 20260901135505 | 80 | 38 | 4.0 | 0.0 | 0.00 | 0.00 | 0.00 | 79 | 1013.3 |
| 20260901135004 | 80 | 138 | 0.0 | 0.0 | 0.00 | 0.00 | 0.00 | 81 | 1013.0 |
| 20260901134712 | 79 | 122 | 9.0 | 0.0 | 0.00 | 0.00 | 0.00 | 82 | 1013.0 |
| 20260901134005 | 78 | 121 | 9.0 | 0.0 | 0.00 | 0.00 | 0.00 | 83 | 1013.0 |
| 20260901133505 | 78 | 74 | 4.0 | 0.0 | 0.00 | 0.00 | 0.00 | 83 | 1013.0 |
| 20260901133004 | 78 | 66 | 4.0 | 0.0 | 0.00 | 0.00 | 0.00 | 83 | 1013.0 |
| 20260901132714 | 77 | 124 | 0.0 | 0.0 | 0.00 | 0.00 | 0.00 | 85 | 1013.0 |
| 20260901132212 | 77 | 125 | 0.0 | 0.0 | 0.00 | 0.00 | 0.00 | 85 | 1013.0 |
| 20260901131714 | 77 | 120 | 0.0 | 0.0 | 0.00 | 0.00 | 0.00 | 86 | 1013.0 |
| 20260901131006 | 77 | 61 | 4.0 | 0.0 | 0.00 | 0.00 | 0.00 | 86 | 1013.0 |
| 20260901130505 | 77 | 120 | 0.0 | 0.0 | 0.00 | 0.00 | 0.00 | 86 | 1012.7 |
| 20260901130005 | 77 | 53 | 0.0 | 0.0 | 0.00 | 0.00 | 0.00 | 87 | 1012.7 |
| 20260901125713 | 77 | 109 | 0.0 | 0.0 | 0.00 | 0.00 | 0.00 | 88 | 1012.3 |
| 20260901125005 | 76 | 112 | 4.0 | 0.0 | 0.00 | 0.00 | 0.00 | 88 | 1012.7 |
| 20260901124711 | 76 | 94 | 4.0 | 0.0 | 0.00 | 0.00 | 0.00 | 89 | 1012.3 |
| 20260901124005 | 76 | 100 | 0.0 | 0.0 | 0.00 | 0.00 | 0.00 | 89 | 1012.7 |
| 20260901123505 | 76 | 100 | 0.0 | 0.0 | 0.00 | 0.00 | 0.00 | 89 | 1012.3 |
| 20260901123005 | 76 | 143 | 0.0 | 0.0 | 0.00 | 0.00 | 0.00 | 89 | 1012.3 |
| 20260901122505 | 76 | 124 | 0.0 | 0.0 | 0.00 | 0.00 | 0.00 | 88 | 1012.3 |
| 20260901122005 | 76 | 114 | 0.0 | 0.0 | 0.00 | 0.00 | 0.00 | 88 | 1012.3 |
| 20260901121505 | 76 | 125 | 0.0 | 0.0 | 0.00 | 0.00 | 0.00 | 88 | 1012.3 |
| 20260901121005 | 76 | 125 | 0.0 | 0.0 | 0.00 | 0.00 | 0.00 | 87 | 1012.3 |
| 20260901120505 | 76 | 112 | 4.0 | 0.0 | 0.00 | 0.00 | 0.00 | 87 | 1012.3 |
| 20260901120005 | 76 | 72 | 0.0 | 0.0 | 0.00 | 0.00 | 0.00 | 87 | 1012.3 |
| 20260901115505 | 76 | 116 | 0.0 | 0.0 | 0.00 | 0.00 | 0.00 | 87 | 1012.3 |
| 20260901115005 | 77 | 78 | 0.0 | 0.0 | 0.00 | 0.00 | 0.00 | 87 | 1012.3 |
| 20260901114505 | 77 | 128 | 0.0 | 0.0 | 0.00 | 0.00 | 0.00 | 86 | 1012.3 |
| 20260901114005 | 77 | 117 | 0.0 | 0.0 | 0.00 | 0.00 | 0.00 | 86 | 1012.3 |
| 20260901113505 | 77 | 112 | 0.0 | 0.0 | 0.00 | 0.00 | 0.00 | 86 | 1012.3 |
| 20260901113005 | 77 | 135 | 0.0 | 0.0 | 0.00 | 0.00 | 0.00 | 86 | 1012.3 |
| 20260901112504 | 77 | 119 | 0.0 | 0.0 | 0.00 | 0.00 | 0.00 | 86 | 1012.3 |
| 20260901112005 | 77 | 161 | 0.0 | 0.0 | 0.00 | 0.00 | 0.00 | 86 | 1012.3 |
| 20260901111713 | 77 | 142 | 4.0 | 0.0 | 0.00 | 0.00 | 0.00 | 85 | 1012.0 |
| 20260901111005 | 77 | 172 | 4.0 | 0.0 | 0.00 | 0.00 | 0.00 | 85 | 1012.3 |
| 20260901110505 | 77 | 117 | 0.0 | 0.0 | 0.00 | 0.00 | 0.00 | 85 | 1012.0 |
| 20260901110212 | 77 | 115 | 0.0 | 0.0 | 0.00 | 0.00 | 0.00 | 85 | 1012.3 |
| 20260901105505 | 77 | 108 | 4.0 | 0.0 | 0.00 | 0.00 | 0.00 | 85 | 1012.3 |
| 20260901105005 | 77 | 117 | 4.0 | 0.0 | 0.00 | 0.00 | 0.00 | 85 | 1012.3 |
| 20260901104713 | 77 | 155 | 9.0 | 0.0 | 0.00 | 0.00 | 0.00 | 84 | 1012.3 |
| 20260901104005 | 77 | 136 | 4.0 | 0.0 | 0.00 | 0.00 | 0.00 | 84 | 1012.3 |
| 20260901103713 | 77 | 156 | 18.0 | 0.0 | 0.00 | 0.00 | 0.00 | 84 | 1012.3 |
| 20260901103005 | 77 | 141 | 13.0 | 0.0 | 0.00 | 0.00 | 0.00 | 84 | 1012.0 |
| 20260901102712 | 77 | 146 | 0.0 | 0.0 | 0.00 | 0.00 | 0.00 | 84 | 1012.0 |
| 20260901102005 | 77 | 142 | 4.0 | 0.0 | 0.00 | 0.00 | 0.00 | 84 | 1012.3 |
| 20260901101712 | 77 | 180 | 9.0 | 0.0 | 0.00 | 0.00 | 0.00 | 85 | 1012.3 |
| 20260901101005 | 77 | 141 | 0.0 | 0.0 | 0.00 | 0.00 | 0.00 | 85 | 1012.3 |
| 20260901100712 | 77 | 132 | 0.0 | 0.0 | 0.00 | 0.00 | 0.00 | 85 | 1012.3 |
| 20260901100005 | 77 | 132 | 0.0 | 0.0 | 0.00 | 0.00 | 0.00 | 86 | 1012.3 |
| 20260901095505 | 77 | 127 | 0.0 | 0.0 | 0.00 | 0.00 | 0.00 | 86 | 1012.3 |
| 20260901095005 | 77 | 121 | 0.0 | 0.0 | 0.00 | 0.00 | 0.00 | 86 | 1012.3 |
| 20260901094505 | 77 | 127 | 0.0 | 0.0 | 0.00 | 0.00 | 0.00 | 86 | 1012.3 |
| 20260901094005 | 77 | 65 | 0.0 | 0.0 | 0.00 | 0.00 | 0.00 | 86 | 1012.3 |
| 20260901093504 | 77 | 115 | 0.0 | 0.0 | 0.00 | 0.00 | 0.00 | 86 | 1012.3 |
| 20260901093005 | 77 | 156 | 0.0 | 0.0 | 0.00 | 0.00 | 0.00 | 86 | 1012.3 |
| 20260901092505 | 77 | 115 | 4.0 | 0.0 | 0.00 | 0.00 | 0.00 | 86 | 1012.3 |
| 20260901092005 | 77 | 143 | 0.0 | 0.0 | 0.00 | 0.00 | 0.00 | 86 | 1012.3 |
| 20260901091505 | 77 | 110 | 0.0 | 0.0 | 0.00 | 0.00 | 0.00 | 86 | 1012.7 |
| 20260901091005 | 77 | 94 | 0.0 | 0.0 | 0.00 | 0.00 | 0.00 | 86 | 1012.7 |
| 20260901090505 | 77 | 108 | 4.0 | 0.0 | 0.00 | 0.00 | 0.00 | 85 | 1012.3 |
| 20260901090005 | 77 | 120 | 0.0 | 0.0 | 0.00 | 0.00 | 0.00 | 85 | 1012.7 |
| 20260901085505 | 77 | 91 | 0.0 | 0.0 | 0.00 | 0.00 | 0.00 | 85 | 1012.7 |
| 20260901085005 | 77 | 120 | 0.0 | 0.0 | 0.00 | 0.00 | 0.00 | 85 | 1012.7 |
| 20260901084505 | 77 | 117 | 0.0 | 0.0 | 0.00 | 0.00 | 0.00 | 85 | 1012.7 |
| 20260901084004 | 77 | 63 | 4.0 | 0.0 | 0.00 | 0.00 | 0.00 | 85 | 1012.7 |
| 20260901083505 | 77 | 131 | 0.0 | 0.0 | 0.00 | 0.00 | 0.00 | 85 | 1013.0 |
| 20260901083005 | 77 | 127 | 0.0 | 0.0 | 0.00 | 0.00 | 0.00 | 84 | 1012.7 |
| 20260901082712 | 77 | 130 | 0.0 | 0.0 | 0.00 | 0.00 | 0.00 | 84 | 1012.7 |
| 20260901082005 | 77 | 131 | 0.0 | 0.0 | 0.00 | 0.00 | 0.00 | 84 | 1012.7 |
| 20260901081505 | 77 | 113 | 0.0 | 0.0 | 0.00 | 0.00 | 0.00 | 84 | 1012.7 |
| 20260901081005 | 77 | 125 | 0.0 | 0.0 | 0.00 | 0.00 | 0.00 | 84 | 1013.0 |
| 20260901080505 | 77 | 158 | 0.0 | 0.0 | 0.00 | 0.00 | 0.00 | 84 | 1012.7 |
| 20260901080004 | 77 | 128 | 0.0 | 0.0 | 0.00 | 0.00 | 0.00 | 84 | 1012.7 |
| 20260901075505 | 77 | 137 | 0.0 | 0.0 | 0.00 | 0.00 | 0.00 | 83 | 1012.7 |
| 20260901075005 | 77 | 106 | 0.0 | 0.0 | 0.00 | 0.00 | 0.00 | 83 | 1012.7 |
| 20260901074505 | 78 | 82 | 0.0 | 0.0 | 0.00 | 0.00 | 0.00 | 83 | 1012.7 |
| 20260901074005 | 78 | 130 | 0.0 | 0.0 | 0.00 | 0.00 | 0.00 | 83 | 1012.7 |
| 20260901073505 | 78 | 81 | 9.0 | 0.0 | 0.00 | 0.00 | 0.00 | 82 | 1012.7 |
| 20260901073005 | 78 | 75 | 0.0 | 0.0 | 0.00 | 0.00 | 0.00 | 82 | 1013.0 |
| 20260901072506 | 78 | 63 | 4.0 | 0.0 | 0.00 | 0.00 | 0.00 | 82 | 1012.7 |
| 20260901072212 | 78 | 30 | 4.0 | 0.0 | 0.00 | 0.00 | 0.00 | 82 | 1013.0 |
| 20260901071711 | 78 | 148 | 0.0 | 0.0 | 0.00 | 0.00 | 0.00 | 82 | 1013.0 |
| 20260901071005 | 78 | 121 | 0.0 | 0.0 | 0.00 | 0.00 | 0.00 | 82 | 1013.0 |
| 20260901070505 | 78 | 156 | 0.0 | 0.0 | 0.00 | 0.00 | 0.00 | 82 | 1013.0 |
| 20260901070005 | 78 | 140 | 4.0 | 0.0 | 0.00 | 0.00 | 0.00 | 82 | 1013.0 |
| 20260901065505 | 78 | 153 | 0.0 | 0.0 | 0.00 | 0.00 | 0.00 | 82 | 1013.0 |
| 20260901065212 | 78 | 354 | 4.0 | 0.0 | 0.00 | 0.00 | 0.00 | 81 | 1012.7 |
| 20260901064713 | 78 | 132 | 0.0 | 0.0 | 0.00 | 0.00 | 0.00 | 81 | 1013.3 |
| 20260901064005 | 78 | 120 | 4.0 | 0.0 | 0.00 | 0.00 | 0.00 | 81 | 1013.0 |
| 20260901063713 | 79 | 138 | 9.0 | 0.0 | 0.00 | 0.00 | 0.00 | 81 | 1013.0 |
| 20260901063004 | 78 | 103 | 4.0 | 0.0 | 0.00 | 0.00 | 0.00 | 81 | 1013.0 |
| 20260901062505 | 78 | 78 | 9.0 | 0.0 | 0.00 | 0.00 | 0.00 | 81 | 1013.0 |
| 20260901062005 | 79 | 126 | 9.0 | 0.0 | 0.00 | 0.00 | 0.00 | 81 | 1013.3 |
| 20260901061505 | 79 | 143 | 4.0 | 0.0 | 0.00 | 0.00 | 0.00 | 81 | 1013.0 |
| 20260901061212 | 79 | 10 | 13.0 | 0.0 | 0.00 | 0.00 | 0.00 | 81 | 1013.0 |
| 20260901060505 | 79 | 57 | 4.0 | 0.0 | 0.00 | 0.00 | 0.00 | 81 | 1013.0 |
| 20260901060005 | 79 | 99 | 0.0 | 0.0 | 0.00 | 0.00 | 0.00 | 81 | 1013.0 |
| 20260901055505 | 79 | 121 | 0.0 | 0.0 | 0.00 | 0.00 | 0.00 | 80 | 1013.3 |
| 20260901055005 | 79 | 94 | 4.0 | 0.0 | 0.00 | 0.00 | 0.00 | 80 | 1013.3 |
| 20260901054505 | 79 | 125 | 4.0 | 0.0 | 0.00 | 0.00 | 0.00 | 80 | 1013.3 |
| 20260901054005 | 79 | 103 | 0.0 | 0.0 | 0.00 | 0.00 | 0.00 | 80 | 1012.7 |
| 20260901053505 | 79 | 23 | 0.0 | 0.0 | 0.00 | 0.00 | 0.00 | 80 | 1013.0 |
| 20260901053004 | 79 | 127 | 9.0 | 0.0 | 0.00 | 0.00 | 0.00 | 79 | 1013.0 |
| 20260901052505 | 79 | 59 | 9.0 | 0.0 | 0.00 | 0.00 | 0.00 | 79 | 1013.3 |
| 20260901052005 | 79 | 119 | 0.0 | 0.0 | 0.00 | 0.00 | 0.00 | 79 | 1013.0 |
| 20260901051505 | 80 | 75 | 18.0 | 0.0 | 0.00 | 0.00 | 0.00 | 79 | 1013.0 |
| 20260901051006 | 80 | 98 | 0.0 | 0.0 | 0.00 | 0.00 | 0.00 | 78 | 1013.3 |
| 20260901050505 | 80 | 97 | 0.0 | 0.0 | 0.00 | 0.00 | 0.00 | 78 | 1013.3 |
| 20260901045505 | 80 | 104 | 4.0 | 0.0 | 0.00 | 0.00 | 0.00 | 78 | 1013.0 |
| 20260901045005 | 80 | 144 | 4.0 | 0.0 | 0.00 | 0.00 | 0.00 | 78 | 1013.3 |
| 20260901044506 | 80 | 96 | 9.0 | 0.0 | 0.00 | 0.00 | 0.00 | 77 | 1013.3 |
| 20260901044214 | 80 | 154 | 4.0 | 0.0 | 0.00 | 0.00 | 0.00 | 77 | 1013.3 |
| 20260901043505 | 80 | 62 | 18.0 | 0.0 | 0.00 | 0.00 | 0.00 | 77 | 1013.3 |
| 20260901043005 | 80 | 131 | 4.0 | 0.0 | 0.00 | 0.00 | 0.00 | 76 | 1013.3 |
| 20260901042505 | 80 | 136 | 9.0 | 0.0 | 0.00 | 0.00 | 0.00 | 76 | 1013.0 |
| 20260901042005 | 80 | 73 | 9.0 | 0.0 | 0.00 | 0.00 | 0.00 | 76 | 1013.3 |
| 20260901041504 | 80 | 141 | 4.0 | 0.0 | 0.00 | 0.00 | 0.00 | 76 | 1013.3 |
| 20260901041005 | 80 | 319 | 13.0 | 0.0 | 0.00 | 0.00 | 0.00 | 75 | 1013.3 |
| 20260901040505 | 80 | 98 | 9.0 | 0.0 | 0.00 | 0.00 | 0.00 | 75 | 1013.3 |
| 20260901040005 | 80 | 149 | 9.0 | 0.0 | 0.00 | 0.00 | 0.00 | 75 | 1013.3 |
| 20260901035712 | 80 | 49 | 0.0 | 0.0 | 0.00 | 0.00 | 0.00 | 74 | 1013.3 |
| 20260901035005 | 80 | 116 | 4.0 | 0.0 | 0.00 | 0.00 | 0.00 | 74 | 1013.3 |
| 20260901034505 | 80 | 62 | 4.0 | 0.0 | 0.00 | 0.00 | 0.00 | 74 | 1013.3 |
| 20260901034005 | 80 | 62 | 9.0 | 0.0 | 0.00 | 0.00 | 0.00 | 74 | 1013.3 |
| 20260901033505 | 80 | 102 | 4.0 | 0.0 | 0.00 | 0.00 | 0.00 | 73 | 1013.0 |
| 20260901033004 | 80 | 99 | 18.0 | 0.0 | 0.00 | 0.00 | 0.00 | 73 | 1013.0 |
| 20260901032505 | 80 | 110 | 13.0 | 0.0 | 0.00 | 0.00 | 0.00 | 72 | 1013.0 |
| 20260901032005 | 80 | 68 | 9.0 | 0.0 | 0.00 | 0.00 | 0.00 | 72 | 1013.3 |
| 20260901031712 | 80 | 140 | 4.0 | 0.0 | 0.00 | 0.00 | 0.00 | 71 | 1013.0 |
| 20260901031005 | 80 | 83 | 4.0 | 0.0 | 0.00 | 0.00 | 0.00 | 71 | 1013.0 |
| 20260901030505 | 80 | 108 | 4.0 | 0.0 | 0.00 | 0.00 | 0.00 | 70 | 1012.7 |
| 20260901030004 | 81 | 62 | 9.0 | 0.0 | 0.00 | 0.00 | 0.00 | 70 | 1012.7 |
| 20260901025505 | 81 | 103 | 13.0 | 0.0 | 0.00 | 0.00 | 0.00 | 70 | 1012.3 |
| 20260901025213 | 81 | 37 | 9.0 | 0.0 | 0.00 | 0.00 | 0.00 | 69 | 1012.3 |
| 20260901024713 | 81 | 78 | 18.0 | 0.0 | 0.00 | 0.00 | 0.00 | 68 | 1012.3 |
| 20260901024212 | 81 | 17 | 13.0 | 0.0 | 0.00 | 0.00 | 0.00 | 67 | 1012.0 |
| 20260901023505 | 81 | 107 | 18.0 | 0.0 | 0.00 | 0.00 | 0.00 | 67 | 1012.0 |
| 20260901023212 | 81 | 87 | 4.0 | 0.0 | 0.00 | 0.00 | 0.00 | 66 | 1011.6 |
| 20260901022505 | 82 | 109 | 13.0 | 0.0 | 0.00 | 0.00 | 0.00 | 66 | 1011.6 |
| 20260901022212 | 82 | 96 | 13.0 | 0.0 | 0.00 | 0.00 | 0.00 | 65 | 1012.0 |
| 20260901021711 | 82 | 33 | 4.0 | 0.0 | 0.00 | 0.00 | 0.00 | 65 | 1011.6 |
| 20260901021005 | 82 | 143 | 9.0 | 0.0 | 0.00 | 0.00 | 0.00 | 64 | 1011.6 |
| 20260901020505 | 82 | 63 | 13.0 | 0.0 | 0.00 | 0.00 | 0.00 | 64 | 1011.3 |
| 20260901020212 | 82 | 63 | 13.0 | 0.0 | 0.00 | 0.00 | 0.00 | 63 | 1011.3 |
| 20260901015505 | 83 | 107 | 13.0 | 0.0 | 0.00 | 0.00 | 0.00 | 63 | 1011.3 |
| 20260901015005 | 83 | 34 | 23.0 | 0.0 | 0.00 | 0.00 | 0.00 | 62 | 1011.0 |
| 20260901014505 | 83 | 55 | 4.0 | 0.0 | 0.00 | 0.00 | 0.00 | 62 | 1011.0 |
| 20260901014005 | 83 | 63 | 13.0 | 0.0 | 0.00 | 0.00 | 0.00 | 60 | 1011.0 |
| 20260901013505 | 83 | 43 | 4.0 | 0.0 | 0.00 | 0.00 | 0.00 | 60 | 1011.3 |
| 20260901013005 | 83 | 104 | 13.0 | 0.0 | 0.00 | 0.00 | 0.00 | 59 | 1011.0 |
| 20260901012505 | 83 | 122 | 0.0 | 0.0 | 0.00 | 0.00 | 0.00 | 57 | 1011.0 |
| 20260901012005 | 83 | 114 | 4.0 | 0.0 | 0.00 | 0.00 | 0.00 | 56 | 1011.0 |
| 20260901011505 | 84 | 81 | 13.0 | 0.0 | 0.00 | 0.00 | 0.00 | 55 | 1010.6 |
| 20260901011004 | 84 | 82 | 18.0 | 0.0 | 0.00 | 0.00 | 0.00 | 54 | 1010.6 |
| 20260901010505 | 84 | 43 | 13.0 | 0.0 | 0.00 | 0.00 | 0.00 | 53 | 1010.6 |
| 20260901010005 | 85 | 45 | 9.0 | 0.0 | 0.00 | 0.00 | 0.00 | 52 | 1010.6 |
| 20260901005713 | 85 | 28 | 32.0 | 0.0 | 0.00 | 0.00 | 0.00 | 51 | 1010.6 |
| 20260901005005 | 85 | 64 | 13.0 | 0.0 | 0.00 | 0.00 | 0.00 | 51 | 1010.6 |
| 20260901004504 | 85 | 55 | 9.0 | 0.0 | 0.00 | 0.00 | 0.00 | 50 | 1010.3 |
| 20260901004005 | 86 | 49 | 9.0 | 0.0 | 0.00 | 0.00 | 0.00 | 49 | 1010.3 |
| 20260901003505 | 86 | 40 | 18.0 | 0.0 | 0.00 | 0.00 | 0.00 | 48 | 1010.3 |
| 20260901003005 | 86 | 201 | 13.0 | 0.0 | 0.00 | 0.00 | 0.00 | 49 | 1010.3 |
| 20260901002505 | 86 | 75 | 13.0 | 0.0 | 0.00 | 0.00 | 0.00 | 48 | 1010.3 |
| 20260901002005 | 86 | 12 | 9.0 | 0.0 | 0.00 | 0.00 | 0.00 | 47 | 1009.9 |
| 20260901001505 | 87 | 193 | 13.0 | 0.0 | 0.00 | 0.00 | 0.00 | 46 | 1009.9 |
| 20260901001004 | 87 | 109 | 18.0 | 0.0 | 0.00 | 0.00 | 0.00 | 45 | 1010.3 |
| 20260901000713 | 87 | 99 | 13.0 | 0.0 | 0.00 | 0.00 | 0.00 | 45 | 1009.9 |
| 20260901000005 | 88 | 261 | 13.0 | 0.0 | 0.00 | 0.00 | 0.00 | 44 | 1009.6 |
| 20260831235505 | 88 | 2 | 13.0 | 0.0 | 0.00 | 0.00 | 0.00 | 44 | 1009.6 |
| 20260831235211 | 88 | 112 | 23.0 | 0.0 | 0.00 | 0.00 | 0.00 | 43 | 1009.6 |
| 20260831234505 | 89 | 340 | 23.0 | 0.0 | 0.00 | 0.00 | 0.00 | 43 | 1009.6 |
| 20260831234005 | 89 | 42 | 23.0 | 0.0 | 0.00 | 0.00 | 0.00 | 42 | 1009.6 |
| 20260831233505 | 89 | 110 | 0.0 | 0.0 | 0.00 | 0.00 | 0.00 | 41 | 1009.6 |
| 20260831233213 | 89 | 348 | 13.0 | 0.0 | 0.00 | 0.00 | 0.00 | 40 | 1009.6 |
| 20260831232505 | 89 | 91 | 13.0 | 0.0 | 0.00 | 0.00 | 0.00 | 40 | 1009.6 |
| 20260831232211 | 90 | 96 | 27.0 | 0.0 | 0.00 | 0.00 | 0.00 | 40 | 1009.6 |
| 20260831231505 | 90 | 67 | 4.0 | 0.0 | 0.00 | 0.00 | 0.00 | 40 | 1009.6 |
| 20260831231005 | 90 | 44 | 9.0 | 0.0 | 0.00 | 0.00 | 0.00 | 40 | 1009.6 |
| 20260831230505 | 90 | 77 | 18.0 | 0.0 | 0.00 | 0.00 | 0.00 | 40 | 1009.6 |
| 20260831230213 | 91 | 50 | 9.0 | 0.0 | 0.00 | 0.00 | 0.00 | 40 | 1009.3 |
| 20260831225505 | 91 | 60 | 23.0 | 0.0 | 0.00 | 0.00 | 0.00 | 39 | 1009.3 |
| 20260831225211 | 92 | 51 | 23.0 | 0.0 | 0.00 | 0.00 | 0.00 | 37 | 1009.6 |
| 20260831224505 | 92 | 140 | 0.0 | 0.0 | 0.00 | 0.00 | 0.00 | 36 | 1009.6 |
| 20260831224005 | 92 | 131 | 13.0 | 0.0 | 0.00 | 0.00 | 0.00 | 36 | 1009.6 |
| 20260831223505 | 92 | 138 | 13.0 | 0.0 | 0.00 | 0.00 | 0.00 | 35 | 1009.6 |
| 20260831223213 | 92 | 80 | 4.0 | 0.0 | 0.00 | 0.00 | 0.00 | 34 | 1009.6 |
| 20260831222505 | 92 | 49 | 41.0 | 0.0 | 0.00 | 0.00 | 0.00 | 33 | 1009.6 |
| 20260831222005 | 93 | 108 | 18.0 | 0.0 | 0.00 | 0.00 | 0.00 | 33 | 1009.3 |
| 20260831221504 | 93 | 158 | 4.0 | 0.0 | 0.00 | 0.00 | 0.00 | 30 | 1009.6 |
| 20260831221005 | 94 | 131 | 27.0 | 0.0 | 0.00 | 0.00 | 0.00 | 30 | 1009.6 |
| 20260831220505 | 93 | 107 | 13.0 | 0.0 | 0.00 | 0.00 | 0.00 | 30 | 1009.6 |
| 20260831220213 | 94 | 144 | 13.0 | 0.0 | 0.00 | 0.00 | 0.00 | 30 | 1009.6 |
| 20260831215505 | 93 | 77 | 18.0 | 0.0 | 0.00 | 0.00 | 0.00 | 31 | 1009.6 |
| 20260831215213 | 93 | 86 | 4.0 | 0.0 | 0.00 | 0.00 | 0.00 | 32 | 1009.6 |
| 20260831214504 | 94 | 74 | 4.0 | 0.0 | 0.00 | 0.00 | 0.00 | 31 | 1009.6 |
| 20260831214213 | 94 | 45 | 4.0 | 0.0 | 0.00 | 0.00 | 0.00 | 31 | 1009.6 |
| 20260831213505 | 93 | 52 | 0.0 | 0.0 | 0.00 | 0.00 | 0.00 | 32 | 1009.6 |
| 20260831213005 | 94 | 24 | 13.0 | 0.0 | 0.00 | 0.00 | 0.00 | 31 | 1009.9 |
| 20260831212505 | 94 | 139 | 4.0 | 0.0 | 0.00 | 0.00 | 0.00 | 32 | 1009.6 |
| 20260831212005 | 94 | 82 | 13.0 | 0.0 | 0.00 | 0.00 | 0.00 | 32 | 1009.9 |
| 20260831211505 | 94 | 85 | 9.0 | 0.0 | 0.00 | 0.00 | 0.00 | 32 | 1009.9 |
| 20260831211004 | 94 | 158 | 4.0 | 0.0 | 0.00 | 0.00 | 0.00 | 32 | 1009.9 |
| 20260831210505 | 94 | 115 | 9.0 | 0.0 | 0.00 | 0.00 | 0.00 | 32 | 1010.3 |
| 20260831210005 | 93 | 90 | 13.0 | 0.0 | 0.00 | 0.00 | 0.00 | 33 | 1009.9 |
| 20260831205505 | 93 | 101 | 9.0 | 0.0 | 0.00 | 0.00 | 0.00 | 34 | 1009.9 |
| 20260831205005 | 93 | 45 | 9.0 | 0.0 | 0.00 | 0.00 | 0.00 | 34 | 1010.3 |
| 20260831204505 | 93 | 79 | 13.0 | 0.0 | 0.00 | 0.00 | 0.00 | 34 | 1010.3 |
| 20260831204212 | 94 | 36 | 13.0 | 0.0 | 0.00 | 0.00 | 0.00 | 33 | 1010.3 |
| 20260831203505 | 94 | 32 | 9.0 | 0.0 | 0.00 | 0.00 | 0.00 | 33 | 1010.6 |
| 20260831203212 | 95 | 131 | 13.0 | 0.0 | 0.00 | 0.00 | 0.00 | 32 | 1010.6 |
| 20260831202505 | 95 | 1 | 9.0 | 0.0 | 0.00 | 0.00 | 0.00 | 31 | 1010.6 |
| 20260831202005 | 95 | 49 | 4.0 | 0.0 | 0.00 | 0.00 | 0.00 | 29 | 1010.6 |
| 20260831201505 | 94 | 49 | 13.0 | 0.0 | 0.00 | 0.00 | 0.00 | 29 | 1010.6 |
| 20260831201005 | 94 | 57 | 13.0 | 0.0 | 0.00 | 0.00 | 0.00 | 29 | 1011.0 |
| 20260831200505 | 95 | 76 | 9.0 | 0.0 | 0.00 | 0.00 | 0.00 | 29 | 1011.0 |
| 20260831200005 | 94 | 169 | 13.0 | 0.0 | 0.00 | 0.00 | 0.00 | 30 | 1011.0 |
| 20260831195505 | 94 | 128 | 9.0 | 0.0 | 0.00 | 0.00 | 0.00 | 31 | 1011.0 |
| 20260831195005 | 95 | 41 | 13.0 | 0.0 | 0.00 | 0.00 | 0.00 | 31 | 1011.0 |
| 20260831194505 | 95 | 52 | 9.0 | 0.0 | 0.00 | 0.00 | 0.00 | 32 | 1011.0 |
| 20260831194005 | 95 | 158 | 4.0 | 0.0 | 0.00 | 0.00 | 0.00 | 33 | 1011.3 |
| 20260831193505 | 93 | 76 | 4.0 | 0.0 | 0.00 | 0.00 | 0.00 | 34 | 1011.3 |
| 20260831193212 | 93 | 128 | 13.0 | 0.0 | 0.00 | 0.00 | 0.00 | 33 | 1011.3 |
| 20260831192505 | 94 | 338 | 13.0 | 0.0 | 0.00 | 0.00 | 0.00 | 33 | 1011.3 |
| 20260831192004 | 95 | 100 | 9.0 | 0.0 | 0.00 | 0.00 | 0.00 | 34 | 1011.6 |
| 20260831191505 | 93 | 141 | 9.0 | 0.0 | 0.00 | 0.00 | 0.00 | 33 | 1011.6 |
| 20260831191005 | 93 | 82 | 9.0 | 0.0 | 0.00 | 0.00 | 0.00 | 34 | 1011.6 |
| 20260831190713 | 93 | 60 | 23.0 | 0.0 | 0.00 | 0.00 | 0.00 | 34 | 1011.6 |
| 20260831190005 | 94 | 177 | 18.0 | 0.0 | 0.00 | 0.00 | 0.00 | 34 | 1011.6 |
| 20260831185505 | 93 | 152 | 9.0 | 0.0 | 0.00 | 0.00 | 0.00 | 34 | 1011.6 |
| 20260831185005 | 94 | 50 | 27.0 | 0.0 | 0.00 | 0.00 | 0.00 | 33 | 1011.6 |
| 20260831184505 | 93 | 100 | 13.0 | 0.0 | 0.00 | 0.00 | 0.00 | 32 | 1012.0 |
| 20260831184004 | 92 | 50 | 13.0 | 0.0 | 0.00 | 0.00 | 0.00 | 35 | 1012.0 |
| 20260831183505 | 93 | 142 | 27.0 | 0.0 | 0.00 | 0.00 | 0.00 | 34 | 1012.0 |
| 20260831183005 | 93 | 86 | 13.0 | 0.0 | 0.00 | 0.00 | 0.00 | 36 | 1012.0 |
| 20260831182505 | 92 | 61 | 4.0 | 0.0 | 0.00 | 0.00 | 0.00 | 36 | 1012.0 |
| 20260831182005 | 92 | 192 | 18.0 | 0.0 | 0.00 | 0.00 | 0.00 | 36 | 1012.0 |
| 20260831181505 | 92 | 152 | 4.0 | 0.0 | 0.00 | 0.00 | 0.00 | 37 | 1012.3 |
| 20260831181005 | 92 | 181 | 13.0 | 0.0 | 0.00 | 0.00 | 0.00 | 37 | 1012.3 |
| 20260831180712 | 92 | 33 | 13.0 | 0.0 | 0.00 | 0.00 | 0.00 | 37 | 1012.3 |
| 20260831180005 | 92 | 153 | 9.0 | 0.0 | 0.00 | 0.00 | 0.00 | 37 | 1012.3 |
| 20260831175505 | 91 | 2 | 9.0 | 0.0 | 0.00 | 0.00 | 0.00 | 38 | 1012.3 |
| 20260831175005 | 91 | 156 | 9.0 | 0.0 | 0.00 | 0.00 | 0.00 | 41 | 1012.7 |
| 20260831174712 | 91 | 102 | 9.0 | 0.0 | 0.00 | 0.00 | 0.00 | 39 | 1012.7 |
| 20260831174004 | 92 | 93 | 9.0 | 0.0 | 0.00 | 0.00 | 0.00 | 39 | 1012.7 |
| 20260831173505 | 90 | 87 | 9.0 | 0.0 | 0.00 | 0.00 | 0.00 | 41 | 1012.7 |
| 20260831173005 | 91 | 28 | 9.0 | 0.0 | 0.00 | 0.00 | 0.00 | 40 | 1012.7 |
| 20260831172505 | 90 | 113 | 9.0 | 0.0 | 0.00 | 0.00 | 0.00 | 41 | 1012.7 |
| 20260831172005 | 90 | 34 | 4.0 | 0.0 | 0.00 | 0.00 | 0.00 | 40 | 1013.0 |
| 20260831171505 | 90 | 70 | 4.0 | 0.0 | 0.00 | 0.00 | 0.00 | 42 | 1013.0 |
| 20260831171005 | 90 | 96 | 4.0 | 0.0 | 0.00 | 0.00 | 0.00 | 43 | 1013.0 |